This is the latest recevied weather packets stored in our database for station/object JH1CWL-13. If no packets are shown the sender has not sent any weather packets the latest 10 day(s).
| Time | Temp. | Humidity | Pressure | Rain* | Wind** | Luminosity | Snow |
|---|---|---|---|---|---|---|---|
| 1777846526 | 21.67° C | 92% | 997.5 hPa | 0 mm | - | - | - |
| 1777845325 | 21.67° C | 93% | 997.2 hPa | 0 mm | - | - | - |
| 1777844126 | 21.67° C | 93% | 997.3 hPa | 0 mm | - | - | - |
| 1777842924 | 21.67° C | 93% | 997.5 hPa | 0.25 mm | - | - | - |
| 1777841725 | 21.67° C | 93% | 997.3 hPa | 0.76 mm | - | - | - |
| 1777840525 | 21.67° C | 93% | 997.3 hPa | 0.76 mm | - | - | - |
| 1777839324 | 21.67° C | 91% | 997.2 hPa | 0.51 mm | - | - | - |
| 1777838125 | 21.67° C | 91% | 997.6 hPa | 0 mm | - | - | - |
| 1777836925 | 21.67° C | 92% | 997.8 hPa | 0 mm | - | - | - |
| 1777835725 | 20.56° C | 92% | 997.5 hPa | 0 mm | - | - | - |
| 1777834525 | 20.56° C | 93% | 998 hPa | 0 mm | - | - | - |
| 1777833325 | 20.56° C | 93% | 998.4 hPa | 0.25 mm | - | - | - |
| 1777832126 | 20° C | 93% | 998.7 hPa | 0.25 mm | - | - | - |
| 1777830926 | 20.56° C | 93% | 999 hPa | 0.76 mm | - | - | - |
| 1777829724 | 19.44° C | 95% | 999.5 hPa | 1.02 mm | - | - | - |
| 1777828524 | 18.89° C | 95% | 1000.5 hPa | 1.27 mm | - | - | - |
| 1777827325 | 18.89° C | 96% | 1001 hPa | 1.02 mm | - | - | - |
| 1777826125 | 18.89° C | 96% | 1001.6 hPa | 0.76 mm | - | - | - |
| 1777824924 | 18.89° C | 95% | 1002.4 hPa | 0.76 mm | - | - | - |
| 1777823725 | 18.89° C | 95% | 1002.7 hPa | 0.51 mm | - | - | - |
| 1777822524 | 18.89° C | 94% | 1003.3 hPa | 0.25 mm | - | - | - |
| 1777821325 | 18.89° C | 93% | 1003.5 hPa | 0 mm | - | - | - |
| 1777820125 | 18.89° C | 95% | 1003.5 hPa | 0.51 mm | - | - | - |
| 1777818925 | 18.33° C | 94% | 1003.6 hPa | 0.51 mm | - | - | - |
| 1777817726 | 18.89° C | 93% | 1003.9 hPa | 0.51 mm | - | - | - |
* Rain latest hour (hover to see other rain measurements)
** Current wind speed in m/s (hover to see current wind gust speed)